N3TTT-13 Weather Reports


time (UTC)temp
C
wind
direction
speed
KPH
gust
KPH
rain 1hr
cm
rain 24hr
cm
rain mn
cm
humidity
%
barometer
mb
20260504110635 10 276 0.0 0.0 0.00 0.00 0.00 87 1016.0
20260504110131 10 260 0.0 0.0 0.00 0.00 0.00 87 1016.0
20260504100551 9 272 0.0 1.6 0.00 0.00 0.00 87 1016.0
20260504081945 8 139 1.6 3.2 0.00 0.00 0.00 85 1016.1
20260504081442 8 253 0.0 0.0 0.00 0.00 0.00 84 1016.3
20260504080938 8 241 1.6 1.6 0.00 0.00 0.00 84 1016.2
20260504080435 8 260 4.8 4.8 0.00 0.00 0.00 84 1016.2
20260504070403 8 239 1.6 1.6 0.00 0.00 0.00 77 1016.2
20260504050750 7 244 0.0 0.0 0.00 0.00 0.00 72 1016.3
20260504050248 7 257 0.0 0.0 0.00 0.00 0.00 73 1016.3
20260504045745 7 257 0.0 0.0 0.00 0.00 0.00 74 1016.4
20260504045239 7 256 0.0 0.0 0.00 0.00 0.00 74 1016.5
20260504044737 7 266 0.0 0.0 0.00 0.00 0.00 76 1016.4
20260504044234 7 271 0.0 0.0 0.00 0.00 0.00 74 1016.1
20260504043731 7 267 0.0 0.0 0.00 0.00 0.00 74 1016.2
20260504043228 7 273 0.0 0.0 0.00 0.00 0.00 73 1016.2
20260504042726 7 286 0.0 0.0 0.00 0.00 0.00 74 1016.1
20260504042222 7 261 0.0 0.0 0.00 0.00 0.00 73 1016.2
20260504041718 7 267 0.0 0.0 0.00 0.00 0.00 73 1016.1
20260504041214 7 275 0.0 0.0 0.00 0.00 0.00 73 1016.1
20260504040711 7 231 0.0 0.0 0.00 0.00 0.00 72 1016.0
20260504040208 7 267 0.0 0.0 0.00 0.00 0.00 74 1016.0
20260504035704 7 274 0.0 0.0 0.00 0.00 0.00 72 1015.9
20260504035202 7 293 0.0 0.0 0.00 0.00 0.00 72 1015.9
20260504034659 7 258 0.0 0.0 0.00 0.00 0.00 72 1016.0
20260504034156 7 241 1.6 1.6 0.00 0.00 0.00 71 1015.8
20260504033654 7 257 0.0 0.0 0.00 0.00 0.00 71 1015.9
20260504033151 7 260 0.0 0.0 0.00 0.00 0.00 70 1015.9
20260504032647 7 262 0.0 0.0 0.00 0.00 0.00 69 1015.8
20260504032145 7 262 0.0 0.0 0.00 0.00 0.00 69 1015.6
20260504031642 7 258 0.0 0.0 0.00 0.00 0.00 68 1015.5
20260504031138 7 251 0.0 0.0 0.00 0.00 0.00 67 1015.6
20260504030634 7 254 0.0 0.0 0.00 0.00 0.00 67 1015.5
20260504030131 7 254 0.0 0.0 0.00 0.00 0.00 66 1015.6
20260504025628 8 252 0.0 0.0 0.00 0.00 0.00 66 1015.7
20260504025125 8 241 0.0 0.0 0.00 0.00 0.00 65 1015.7
20260504024622 8 251 0.0 0.0 0.00 0.00 0.00 65 1015.6
20260504024119 8 243 0.0 0.0 0.00 0.00 0.00 64 1015.8
20260504023615 8 259 0.0 0.0 0.00 0.00 0.00 64 1015.6
20260504023111 8 255 0.0 0.0 0.00 0.00 0.00 65 1015.8
20260504022608 8 257 0.0 0.0 0.00 0.00 0.00 64 1015.5
20260504022104 8 259 0.0 0.0 0.00 0.00 0.00 66 1015.7
20260504021602 8 234 3.2 4.8 0.00 0.00 0.00 65 1015.8
20260504021059 8 241 0.0 0.0 0.00 0.00 0.00 65 1015.7
20260504020555 8 258 0.0 0.0 0.00 0.00 0.00 66 1015.5
20260504020052 8 264 0.0 0.0 0.00 0.00 0.00 65 1015.4
20260504015548 8 256 0.0 0.0 0.00 0.00 0.00 63 1015.5
20260504015044 8 255 0.0 0.0 0.00 0.00 0.00 62 1015.7
20260504014541 8 258 0.0 0.0 0.00 0.00 0.00 62 1015.6
20260504014038 8 255 0.0 0.0 0.00 0.00 0.00 61 1015.5
20260504013535 8 259 0.0 0.0 0.00 0.00 0.00 63 1015.4
20260504013032 9 260 0.0 0.0 0.00 0.00 0.00 61 1015.5
20260504012530 9 259 0.0 0.0 0.00 0.00 0.00 62 1015.4
20260504012027 9 251 0.0 0.0 0.00 0.00 0.00 61 1015.5
20260504011524 9 256 0.0 0.0 0.00 0.00 0.00 59 1015.2
20260504011020 10 255 0.0 0.0 0.00 0.00 0.00 58 1015.1
20260504010516 10 257 0.0 0.0 0.00 0.00 0.00 59 1015.0
20260504010012 10 257 0.0 0.0 0.00 0.00 0.00 58 1015.0
20260504005509 10 252 0.0 0.0 0.00 0.00 0.00 56 1015.2
20260504005006 10 255 0.0 0.0 0.00 0.00 0.00 57 1015.0
20260504004504 10 257 0.0 0.0 0.00 0.00 0.00 56 1015.0
20260504004001 10 257 0.0 0.0 0.00 0.00 0.00 56 1015.1
20260504003456 10 259 0.0 0.0 0.00 0.00 0.00 60 1015.0
20260504002954 10 259 0.0 0.0 0.00 0.00 0.00 57 1015.1
20260504002451 10 254 0.0 0.0 0.00 0.00 0.00 56 1014.7
20260504001948 10 255 0.0 0.0 0.00 0.00 0.00 54 1014.8
20260504001445 11 257 0.0 0.0 0.00 0.00 0.00 54 1014.3
20260504000942 11 258 0.0 0.0 0.00 0.00 0.00 53 1014.6
20260504000439 11 257 0.0 0.0 0.00 0.00 0.00 54 1014.3
20260503235936 11 258 0.0 0.0 0.00 0.00 0.00 53 1014.4
20260503235434 11 257 0.0 0.0 0.00 0.00 0.00 52 1014.5
20260503234931 12 258 0.0 0.0 0.00 0.00 0.00 50 1014.4
20260503234429 12 257 0.0 0.0 0.00 0.00 0.00 48 1014.4
20260503233927 12 254 0.0 0.0 0.00 0.00 0.00 48 1014.3
20260503233423 12 251 0.0 0.0 0.00 0.00 0.00 47 1014.2
20260503232919 12 257 0.0 0.0 0.00 0.00 0.00 47 1014.4
20260503232416 13 255 0.0 0.0 0.00 0.00 0.00 45 1014.3
20260503231914 13 245 0.0 0.0 0.00 0.00 0.00 44 1014.3
20260503231411 13 264 0.0 0.0 0.00 0.00 0.00 44 1014.4
20260503230908 13 346 0.0 1.6 0.00 0.00 0.00 43 1014.4
20260503230404 13 275 0.0 0.0 0.00 0.00 0.00 42 1014.2
20260503225902 14 341 1.6 3.2 0.00 0.00 0.00 41 1014.3
20260503225358 14 293 0.0 1.6 0.00 0.00 0.00 40 1014.3
20260503224854 14 258 1.6 3.2 0.00 0.00 0.00 40 1014.2
20260503224351 14 32 1.6 1.6 0.00 0.00 0.00 38 1014.5
20260503223849 14 87 0.0 1.6 0.00 0.00 0.00 38 1014.2
20260503223347 14 354 4.8 4.8 0.00 0.00 0.00 39 1014.3
20260503222842 14 279 1.6 1.6 0.00 0.00 0.00 38 1014.4
20260503222341 14 340 3.2 3.2 0.00 0.00 0.00 37 1014.3
20260503221838 14 308 3.2 3.2 0.00 0.00 0.00 40 1014.3
20260503221337 14 17 3.2 4.8 0.00 0.00 0.00 40 1014.3
20260503220832 14 350 3.2 3.2 0.00 0.00 0.00 41 1014.3
20260503220329 15 235 4.8 4.8 0.00 0.00 0.00 41 1014.3
20260503215826 15 277 3.2 4.8 0.00 0.00 0.00 39 1014.3
20260503215324 15 266 4.8 4.8 0.00 0.00 0.00 39 1014.2
20260503214821 15 272 4.8 8.0 0.00 0.00 0.00 40 1014.4
20260503214319 15 23 6.4 11.3 0.00 0.00 0.00 39 1014.3
20260503213816 14 323 3.2 3.2 0.00 0.00 0.00 41 1014.1
20260503213314 14 262 1.6 1.6 0.00 0.00 0.00 39 1014.1
20260503212810 15 21 3.2 4.8 0.00 0.00 0.00 40 1014.1
20260503212308 14 301 1.6 1.6 0.00 0.00 0.00 41 1014.0
20260503211805 14 222 8.0 9.7 0.00 0.00 0.00 40 1014.1
20260503211302 14 279 3.2 4.8 0.00 0.00 0.00 41 1014.2
20260503210801 15 242 4.8 4.8 0.00 0.00 0.00 40 1014.2
20260503210259 15 291 1.6 3.2 0.00 0.00 0.00 40 1013.9
20260503205754 14 34 3.2 3.2 0.00 0.00 0.00 40 1014.2
20260503205251 14 337 3.2 3.2 0.00 0.00 0.00 43 1014.2
20260503204748 14 316 6.4 8.0 0.00 0.00 0.00 39 1014.0
20260503204245 14 334 3.2 8.0 0.00 0.00 0.00 40 1014.2
20260503203743 15 285 1.6 4.8 0.00 0.00 0.00 41 1014.4
20260503203240 15 51 4.8 8.0 0.00 0.00 0.00 39 1014.2
20260503202737 15 206 3.2 8.0 0.00 0.00 0.00 38 1014.2
20260503202235 15 286 4.8 8.0 0.00 0.00 0.00 39 1014.1
20260503201732 15 292 6.4 8.0 0.00 0.00 0.00 39 1014.5
20260503201230 15 302 3.2 3.2 0.00 0.00 0.00 41 1014.3
20260503200726 15 269 6.4 8.0 0.00 0.00 0.00 41 1014.5
20260503200222 14 19 3.2 3.2 0.00 0.00 0.00 41 1014.3
20260503195719 14 311 8.0 9.7 0.00 0.00 0.00 40 1014.5
20260503195216 14 349 1.6 3.2 0.00 0.00 0.00 41 1014.6
20260503194714 14 330 4.8 4.8 0.00 0.00 0.00 41 1014.5
20260503194209 14 149 0.0 1.6 0.00 0.00 0.00 40 1014.5
20260503193706 14 327 1.6 3.2 0.00 0.00 0.00 42 1014.4
20260503193202 14 341 8.0 9.7 0.00 0.00 0.00 38 1014.5
20260503192657 14 339 4.8 4.8 0.00 0.00 0.00 39 1014.9
20260503192153 15 259 1.6 3.2 0.00 0.00 0.00 38 1014.8
20260503191649 14 280 1.6 1.6 0.00 0.00 0.00 41 1014.8
20260503191147 15 295 6.4 8.0 0.00 0.00 0.00 37 1014.8
20260503190644 15 326 3.2 3.2 0.00 0.00 0.00 40 1014.8
20260503190141 15 303 3.2 3.2 0.00 0.00 0.00 37 1014.5
20260503185637 14 304 3.2 3.2 0.00 0.00 0.00 39 1014.8
20260503185132 13 301 3.2 4.8 0.00 0.00 0.00 39 1015.0
20260503184628 14 336 6.4 8.0 0.00 0.00 0.00 40 1014.9
20260503184125 13 325 3.2 4.8 0.00 0.00 0.00 39 1015.2
20260503183621 14 247 3.2 4.8 0.00 0.00 0.00 42 1015.2
20260503183118 13 254 1.6 3.2 0.00 0.00 0.00 39 1014.8
20260503182617 13 298 3.2 3.2 0.00 0.00 0.00 39 1015.2
20260503182115 13 267 11.3 12.9 0.00 0.00 0.00 40 1015.0
20260503181611 13 316 11.3 12.9 0.00 0.00 0.00 42 1015.2
20260503181108 13 311 1.6 3.2 0.00 0.00 0.00 43 1015.5
20260503180605 13 268 1.6 1.6 0.00 0.00 0.00 41 1015.4
20260503180103 13 324 1.6 3.2 0.00 0.00 0.00 42 1015.3
20260503175559 13 336 8.0 9.7 0.00 0.00 0.00 41 1015.4
20260503175057 14 321 6.4 8.0 0.00 0.00 0.00 44 1015.3
20260503174554 14 335 4.8 8.0 0.00 0.00 0.00 43 1015.2
20260503174050 13 44 3.2 3.2 0.00 0.00 0.00 43 1015.3
20260503173545 13 346 9.7 16.1 0.00 0.00 0.00 42 1015.3
20260503173042 13 273 1.6 3.2 0.00 0.00 0.00 44 1015.2
20260503172539 13 8 8.0 9.7 0.00 0.00 0.00 41 1015.8
20260503172036 13 312 9.7 14.5 0.00 0.00 0.00 43 1015.3
20260503171533 13 327 6.4 12.9 0.00 0.00 0.00 46 1015.5
20260503171030 12 339 12.9 14.5 0.00 0.00 0.00 44 1015.5
20260503170526 12 310 3.2 3.2 0.00 0.00 0.00 44 1015.4
20260503150919 11 331 3.2 4.8 0.00 0.00 0.00 52 1015.9
20260503150415 11 327 6.4 8.0 0.00 0.00 0.00 50 1015.9
20260503131308 10 149 4.8 4.8 0.00 0.00 0.00 62 1015.6
20260503130806 10 292 6.4 11.3 0.00 0.00 0.00 61 1015.8
20260503130303 8 326 6.4 8.0 0.00 0.00 0.00 63 1015.6